N700PB KSAN-KBOI

Flight info

Callsign N700PB
Flight time N/A
Altitude 43000
Route PADRZ2 EHF BETBE/N0485F410 PRNCS SADYL4
Aircraft C700/M-SBDGHM1RWXY/LB2

Departure

Time 2026-04-26 00:09
Airport San Diego International Airport (KSAN)

Arrival

Time N/A
Airport Boise Air Terminal/Gowen Field (KBOI)
Time Latitude Longitude Altitude Speed Heading
2026-04-25 23:39 32.73303 -117.17905 18 ft 0 kts 267°
2026-04-25 23:52 32.73303 -117.17908 18 ft 2 kts 267°
2026-04-25 23:52 32.73287 -117.17958 20 ft 11 kts 230°
2026-04-25 23:52 32.73266 -117.17981 19 ft 3 kts 206°
2026-04-25 23:53 32.73225 -117.17938 16 ft 14 kts 113°
2026-04-25 23:53 32.73180 -117.17773 17 ft 25 kts 104°
2026-04-25 23:53 32.73140 -117.17605 17 ft 16 kts 113°
2026-04-25 23:53 32.73104 -117.17555 16 ft 0 kts 149°
2026-04-25 23:58 32.73082 -117.17541 11 ft 12 kts 154°
2026-04-25 23:58 32.73028 -117.17620 16 ft 16 kts 296°
2026-04-25 23:59 32.73035 -117.17644 17 ft 0 kts 285°
2026-04-26 00:00 32.73038 -117.17658 15 ft 14 kts 286°
2026-04-26 00:01 32.73122 -117.18002 13 ft 71 kts 286°
2026-04-26 00:01 32.73280 -117.18650 20 ft 39 kts 286°
2026-04-26 00:01 32.73338 -117.18791 17 ft 9 kts 325°
2026-04-26 00:01 32.73415 -117.18783 16 ft 12 kts 64°
2026-04-26 00:02 32.73417 -117.18764 16 ft 0 kts 89°
2026-04-26 00:02 32.73417 -117.18762 16 ft 2 kts 90°
2026-04-26 00:02 32.73416 -117.18748 16 ft 0 kts 96°
2026-04-26 00:03 32.73409 -117.18704 16 ft 6 kts 99°
2026-04-26 00:03 32.73403 -117.18653 18 ft 6 kts 102°
2026-04-26 00:03 32.73380 -117.18579 20 ft 12 kts 111°
2026-04-26 00:03 32.73355 -117.18488 21 ft 12 kts 105°
2026-04-26 00:04 32.73329 -117.18383 20 ft 15 kts 106°
2026-04-26 00:04 32.73298 -117.18257 18 ft 17 kts 106°
2026-04-26 00:04 32.73266 -117.18120 17 ft 18 kts 105°
2026-04-26 00:04 32.73229 -117.17967 18 ft 20 kts 107°
2026-04-26 00:05 32.73193 -117.17822 17 ft 12 kts 105°
2026-04-26 00:05 32.73184 -117.17786 19 ft 1 kts 107°
2026-04-26 00:05 32.73184 -117.17785 19 ft 0 kts 107°
2026-04-26 00:05 32.73183 -117.17778 18 ft 9 kts 105°
2026-04-26 00:06 32.73172 -117.17726 20 ft 7 kts 104°
2026-04-26 00:06 32.73130 -117.17668 21 ft 6 kts 186°
2026-04-26 00:07 32.73109 -117.17671 17 ft 14 kts 180°
2026-04-26 00:07 32.73057 -117.17728 15 ft 12 kts 279°
2026-04-26 00:07 32.73060 -117.17744 17 ft 0 kts 288°
2026-04-26 00:08 32.73075 -117.17805 15 ft 34 kts 285°
2026-04-26 00:08 32.73203 -117.18333 21 ft 102 kts 286°
2026-04-26 00:09 32.73463 -117.19407 29 ft 165 kts 286°
2026-04-26 00:09 32.73784 -117.20785 754 ft 174 kts 285°
2026-04-26 00:09 32.74406 -117.22090 1808 ft 192 kts 305°
2026-04-26 00:09 32.75239 -117.23388 2925 ft 203 kts 301°
2026-04-26 00:10 32.76054 -117.24890 3832 ft 231 kts 300°
2026-04-26 00:10 32.76984 -117.26580 4829 ft 254 kts 302°
2026-04-26 00:10 32.77976 -117.28326 6382 ft 256 kts 301°
2026-04-26 00:10 32.78984 -117.30128 7725 ft 272 kts 300°
2026-04-26 00:11 32.80144 -117.32180 8010 ft 330 kts 303°
2026-04-26 00:11 32.81642 -117.34478 8012 ft 352 kts 305°
2026-04-26 00:11 32.83099 -117.36663 8008 ft 323 kts 304°
2026-04-26 00:11 32.84403 -117.38696 8125 ft 295 kts 303°
2026-04-26 00:12 32.85587 -117.40555 8284 ft 271 kts 303°
2026-04-26 00:12 32.86695 -117.42275 8251 ft 254 kts 303°
2026-04-26 00:12 32.87724 -117.43870 8227 ft 239 kts 303°
2026-04-26 00:12 32.88709 -117.45400 8265 ft 226 kts 302°
2026-04-26 00:13 32.89637 -117.46842 8404 ft 207 kts 302°
2026-04-26 00:13 32.90448 -117.48091 8861 ft 170 kts 301°
2026-04-26 00:13 32.91101 -117.49098 9522 ft 152 kts 297°
2026-04-26 00:13 32.91756 -117.50163 10252 ft 168 kts 298°
2026-04-26 00:14 32.92503 -117.51319 11005 ft 185 kts 298°
2026-04-26 00:14 32.93316 -117.52593 11809 ft 201 kts 297°
2026-04-26 00:14 32.94204 -117.53975 12654 ft 218 kts 297°
2026-04-26 00:14 32.95157 -117.55462 13523 ft 234 kts 297°
2026-04-26 00:15 32.96167 -117.57033 14337 ft 248 kts 297°
2026-04-26 00:15 32.97244 -117.58713 15150 ft 263 kts 297°
2026-04-26 00:15 32.98382 -117.60489 15976 ft 276 kts 297°
2026-04-26 00:15 32.99577 -117.62353 16835 ft 290 kts 297°
2026-04-26 00:16 33.00833 -117.64317 17711 ft 304 kts 297°
2026-04-26 00:16 33.02145 -117.66366 18558 ft 318 kts 297°
2026-04-26 00:16 33.03511 -117.68500 19336 ft 329 kts 297°
2026-04-26 00:16 33.04922 -117.70705 20132 ft 339 kts 297°
2026-04-26 00:17 33.06447 -117.72918 20946 ft 355 kts 303°
2026-04-26 00:17 33.08317 -117.74940 21784 ft 370 kts 310°
2026-04-26 00:17 33.10303 -117.76934 22639 ft 376 kts 309°
2026-04-26 00:17 33.12304 -117.78977 23521 ft 381 kts 309°
2026-04-26 00:18 33.14328 -117.81046 24268 ft 385 kts 309°
2026-04-26 00:18 33.16379 -117.83130 25027 ft 388 kts 309°
2026-04-26 00:18 33.18442 -117.85227 25806 ft 391 kts 308°
2026-04-26 00:18 33.20536 -117.87315 26606 ft 394 kts 310°
2026-04-26 00:19 33.22667 -117.89380 27421 ft 394 kts 309°
2026-04-26 00:19 33.24790 -117.91451 28263 ft 394 kts 309°
2026-04-26 00:19 33.26912 -117.93530 29132 ft 395 kts 309°
2026-04-26 00:19 33.29010 -117.95579 30000 ft 394 kts 309°
2026-04-26 00:20 33.31128 -117.97642 30761 ft 391 kts 308°
2026-04-26 00:20 33.33229 -117.99692 31533 ft 388 kts 308°
2026-04-26 00:20 33.35302 -118.01722 32325 ft 383 kts 308°
2026-04-26 00:20 33.37348 -118.03724 33137 ft 377 kts 307°
2026-04-26 00:21 33.39362 -118.05696 33968 ft 370 kts 307°
2026-04-26 00:21 33.41338 -118.07631 34687 ft 363 kts 307°
2026-04-26 00:21 33.43268 -118.09522 35425 ft 354 kts 307°
2026-04-26 00:21 33.45147 -118.11367 36175 ft 346 kts 307°
2026-04-26 00:22 33.46984 -118.13170 36944 ft 337 kts 307°
2026-04-26 00:22 33.48769 -118.14921 37739 ft 325 kts 307°
2026-04-26 00:22 33.50486 -118.16605 38548 ft 312 kts 306°
2026-04-26 00:22 33.52129 -118.18219 39221 ft 298 kts 306°
2026-04-26 00:23 33.53690 -118.19752 39882 ft 282 kts 305°
2026-04-26 00:23 33.55143 -118.21181 40534 ft 265 kts 304°
2026-04-26 00:23 33.56546 -118.22560 40927 ft 259 kts 304°
2026-04-26 00:23 33.58095 -118.24037 39068 ft 296 kts 306°
2026-04-26 00:24 33.59911 -118.25444 34172 ft 354 kts 316°
2026-04-26 00:24 33.62509 -118.26646 29231 ft 417 kts 334°
2026-04-26 00:24 33.65467 -118.27114 25619 ft 460 kts 353°
2026-04-26 00:24 33.68778 -118.26740 25173 ft 469 kts
2026-04-26 00:25 33.71890 -118.25868 25574 ft 453 kts
2026-04-26 00:25 33.74919 -118.24807 25811 ft 448 kts 12°
2026-04-26 00:25 33.77863 -118.23678 25952 ft 449 kts 13°
2026-04-26 00:25 33.80856 -118.22485 26135 ft 448 kts 13°
2026-04-26 00:26 33.83820 -118.21272 26291 ft 455 kts 14°
2026-04-26 00:26 33.86814 -118.20031 26478 ft 464 kts 14°
2026-04-26 00:26 33.89865 -118.18761 26774 ft 455 kts 14°
2026-04-26 00:26 33.92831 -118.17510 26948 ft 457 kts 14°
2026-04-26 00:27 33.95933 -118.16213 27239 ft 483 kts 14°
2026-04-26 00:27 33.99126 -118.14880 28098 ft 483 kts 14°
2026-04-26 00:27 34.02286 -118.13557 28993 ft 490 kts 14°
2026-04-26 00:27 34.05504 -118.12207 30120 ft 488 kts 15°
2026-04-26 00:28 34.08713 -118.10857 30934 ft 489 kts 14°
2026-04-26 00:28 34.11932 -118.09503 31672 ft 491 kts 14°
2026-04-26 00:28 34.15156 -118.08146 32405 ft 492 kts 14°
2026-04-26 00:28 34.18400 -118.06782 33087 ft 494 kts 14°
2026-04-26 00:29 34.21649 -118.05416 33754 ft 494 kts 14°
2026-04-26 00:29 34.24900 -118.04049 34278 ft 496 kts 14°
2026-04-26 00:29 34.28165 -118.02678 34723 ft 496 kts 14°
2026-04-26 00:29 34.31432 -118.01305 35136 ft 495 kts 14°
2026-04-26 00:30 34.34691 -117.99936 35422 ft 497 kts 14°
2026-04-26 00:30 34.37922 -117.98580 35688 ft 497 kts 14°
2026-04-26 00:30 34.41186 -117.97211 35931 ft 496 kts 14°
2026-04-26 00:30 34.44456 -117.95841 36095 ft 498 kts 14°
2026-04-26 00:31 34.47734 -117.94468 36240 ft 498 kts 14°
2026-04-26 00:31 34.51003 -117.93098 36366 ft 497 kts 14°
2026-04-26 00:31 34.54281 -117.91725 36460 ft 498 kts 14°
2026-04-26 00:32 34.60836 -117.88982 36627 ft 498 kts 14°
2026-04-26 00:32 34.70661 -117.84874 36695 ft 498 kts 14°
2026-04-26 00:33 34.77207 -117.82140 36729 ft 496 kts 14°
2026-04-26 00:33 34.83763 -117.80057 37056 ft 486 kts 359°
2026-04-26 00:34 34.90452 -117.80454 37245 ft 465 kts 338°
2026-04-26 00:34 34.93396 -117.81855 37229 ft 448 kts 323°
2026-04-26 00:34 34.96058 -117.83759 37259 ft 441 kts 318°
2026-04-26 00:35 35.01024 -117.87957 37304 ft 433 kts 312°
2026-04-26 00:35 35.02940 -117.90638 37237 ft 410 kts 290°
2026-04-26 00:35 35.03783 -117.93851 37197 ft 391 kts 269°
2026-04-26 00:36 35.03659 -117.97111 37210 ft 383 kts 258°
2026-04-26 00:36 35.03276 -118.00322 37285 ft 382 kts 257°
2026-04-26 00:36 35.02718 -118.06809 37380 ft 387 kts 264°
2026-04-26 00:37 35.02721 -118.13397 37458 ft 387 kts 263°
2026-04-26 00:37 35.02451 -118.19961 37560 ft 388 kts 263°
2026-04-26 00:38 35.02308 -118.26506 37637 ft 389 kts 263°
2026-04-26 00:38 35.02100 -118.33086 37724 ft 387 kts 263°
2026-04-26 00:39 35.02166 -118.39673 37708 ft 396 kts 275°
2026-04-26 00:39 35.03051 -118.42899 37687 ft 408 kts 289°
2026-04-26 00:39 35.04028 -118.44878 37672 ft 417 kts 298°
2026-04-26 00:40 35.08427 -118.51304 37676 ft 423 kts 303°
2026-04-26 00:40 35.12232 -118.56802 37751 ft 424 kts 302°
2026-04-26 00:41 35.16007 -118.62291 37824 ft 425 kts 302°
2026-04-26 00:41 35.19817 -118.67817 37902 ft 425 kts 302°
2026-04-26 00:42 35.23619 -118.73360 37978 ft 425 kts 303°
2026-04-26 00:42 35.27426 -118.78905 38079 ft 425 kts 303°
2026-04-26 00:43 35.30610 -118.83555 38134 ft 425 kts 303°
2026-04-26 00:43 35.34382 -118.89072 38173 ft 425 kts 303°